Regional Weather Roundup
Issued by NWS Cleveland, OH

Home | Current Version | Previous Version | Text Only | Print | Product List | Glossary Off
Versions: 1 2 3 4 5 6 7 8 9 10 11 12 13 14 15 16 17 18 19 20 21 22 23 24 25 26 27 28 29 30 31 32 33 34 35 36 37 38 39 40 41 42 43 44 45 46 47 48 49 50

848
ASUS41 KCLE 290710
RWRCLE
OHIO REGIONAL WEATHER ROUNDUP
NATIONAL WEATHER SERVICE WILMINGTON, OH
300 AM EDT WED MAR 29 2017

NOTE: "FAIR" INDICATES FEW OR NO CLOUDS BELOW 12,000 FEET WITH NO
SIGNIFICANT WEATHER AND/OR OBSTRUCTIONS TO VISIBILITY.

OHZ001>008-015>018-024>027-034-035-043-044-290800-
   NORTHWEST OHIO

CITY           SKY/WX    TMP DP  RH WIND       PRES   REMARKS
DEFIANCE       FAIR      37  34  89 NE5       30.22R
FINDLAY        FAIR      38  31  76 NE8       30.20S
TOLEDO EXPRESS FAIR      35  34  96 NE3       30.22R
TOLEDO EXEC    FAIR      37  33  85 NE6       30.24R
LIMA           MOCLDY    42  39  89 NE12      30.19R
$$

OHZ009>014-019>023-028>033-038-089-290800-
   NORTHEAST OHIO

CITY           SKY/WX    TMP DP  RH WIND       PRES   REMARKS
CLE-HOPKINS    CLOUDY    39  33  79 N5        30.23R
CLE-LAKEFRONT  CLOUDY    38  34  85 NW3       30.20S
CUY CO. ARPT   NOT AVBL
LORAIN-ELYRIA  CLOUDY    37  32  82 NE6       30.21S
ASHTABULA      CLOUDY    39  37  92 NE3       30.18F
AKRON-CANTON   CLOUDY    41  37  86 N8        30.16S FOG
WOOSTER        CLOUDY    39  37  92 N10       30.17F
MANSFIELD      CLOUDY    38  37  97 N7        30.18R
YOUNGSTOWN     CLOUDY    40  38  93 N10       30.16S
$$

OHZ042-051>053-060>062-070>072-077>081-290800-
  SOUTHWEST OHIO

CITY           SKY/WX    TMP DP  RH WIND       PRES   REMARKS
CINC-COVINGTON CLOUDY    51  46  83 NE13      30.12S
CINC-LUNKEN    CLOUDY    51  47  86 NE9       30.15S
HAMILTON       CLOUDY    50  45  83 NE8       30.16R
DAYTON         CLOUDY    45  40  82 NE9       30.18R
WRIGHT-PAT AFB CLOUDY    45  41  87 NE8       30.17R
DAYTON GENERAL CLOUDY    47  42  83 NE12      30.15S
WILMINGTON     CLOUDY    44  41  89 N10       30.16R
$$

OHZ036-037-039>041-045>050-054>059-063>069-073>076-082>088-290800-
  CENTRAL AND SOUTHEAST OHIO

CITY           SKY/WX    TMP DP  RH WIND       PRES   REMARKS
COLUMBUS       FAIR      42  38  85 N7        30.16S
OSU AIRPORT    FAIR      40  38  93 N8        30.16F
BOLTON FIELD   MOCLDY    40  37  89 N3        30.17S
RICKENBACK AFB FAIR      42  39  90 N5        30.17S
NEWARK         FAIR      41  36  82 NE7       30.16S
MARION         CLOUDY    37  33  85 NE12      30.19S
LANCASTER      FAIR      41  37  86 N3        30.16S
ZANESVILLE     CLOUDY    44  38  79 NE6       30.16S
NEW PHILLY     CLOUDY    44  40  85 N6        30.16S
$$




USA.gov is the U.S. government's official web portal to all federal, state and local government web resources and services.